Probability
0 0 0 0 0 0 0 0 0 0 0 0 0 0 1 2 2 1 1 0 0 0 0 0 0 0 0 0 0 0 0 0 0 0 0 0 0 0
0 0 0 0 0 0 0 0 0 0 0 0 0 0 0 1 1 1 1 1 0 0 0 0 0 0 0 0 0 0 0 0 0 0 0 0 0 0
0 0 0 0 0 0 0 0 0 0 0 0 0 0 0 0 0 1 1 1 1 0 0 0 0 0 0 0 0 0 0 0 0 0 0 0 0 0
1 0 0 0 0 1 1 1 1 1 0 0 0 0 0 0 0 0 0 0 0 0 0 0 0 0 0 0 0 0 0 0 0 0 0 0 0 0
2 2 2 2 2 3 3 2 2 2 1 0 0 0 0 0 0 0 0 0 0 0 0 0 0 0 0 0 0 0 0 0 0 0 0 0 0 0
4 4 6 7 6 5 4 4 4 4 2 1 0 0 0 0 0 0 0 0 0 0 0 0 0 0 0 0 0 0 0 0 0 0 0 0 0 0
4 5 7 7 6 5 3 4 5 4 3 1 0 0 0 0 0 0 0 0 0 0 0 0 0 0 0 0 0 0 0 0 0 0 0 0 0 0
4 5 6 5 4 2 2 2 3 3 1 1 0 0 0 0 0 0 0 0 0 0 0 0 0 0 0 0 0 0 0 0 0 0 0 0 0 0
4 4 4 4 4 3 1 0 1 1 0 0 0 0 0 0 0 0 0 0 0 0 0 0 0 0 0 0 0 0 0 0 0 0 0 0 0 0
3 3 3 4 4 4 2 0 0 0 0 0 0 0 0 0 0 0 0 0 0 0 0 0 0 0 0 0 0 0 0 0 0 0 0 0 0 0
1 1 2 3 3 2 1 0 0 0 0 0 0 0 0 0 0 0 0 0 0 0 0 0 0 0 0 0 0 0 0 0 0 0 0 0 0 0
1 1 1 1 1 0 0 0 0 0 0 0 0 0 0 0 0 0 0 0 0 0 0 0 0 0 0 0 0 0 0 0 0 0 0 0 0 0
3 3 1 0 0 0 0 0 0 0 0 0 0 0 0 0 0 0 0 0 0 0 0 0 0 0 0 0 0 0 0 0 0 0 0 0 0 0
6 5 3 1 0 0 0 0 0 0 0 0 0 0 0 0 0 0 0 0 0 0 0 0 0 0 0 0 0 0 0 0 0 0 0 0 0 0
5 4 2 1 0 0 0 0 0 0 0 0 0 0 0 0 0 0 0 0 0 0 0 0 0 0 0 0 0 0 0 0 0 0 0 0 0 0
2 1 1 0 0 0 0 0 0 0 0 0 0 0 0 0 0 0 0 0 0 0 0 0 0 0 0 0 0 0 0 0 0 0 0 0 0 0
0 0 0 0 0 0 0 0 0 0 0 0 0 0 0 0 0 0 0 0 0 0 0 0 0 0 0 0 0 0 0 0 0 0 0 0 0 0
0 0 0 0 0 0 0 0 0 0 0 0 0 0 0 0 0 0 0 0 0 0 0 0 0 0 0 0 0 0 0 0 0 0 0 0 0 0
0 0 0 0 0 0 0 0 0 0 0 0 0 0 0 0 0 0 0 0 0 0 0 0 0 0 0 0 0 0 0 0 0 0 0 0 0 0
0 0 0 0 0 0 0 0 0 0 0 0 0 0 0 0 0 0 0 0 0 0 0 0 0 0 0 0 0 0 0 0 0 0 0 0 0 0
0 0 0 0 0 0 0 0 0 0 0 0 0 0 0 0 0 0 0 0 0 0 0 0 0 0 0 0 0 0 0 0 0 0 0 0 0 0
0 0 0 0 0 0 0 0 0 0 0 0 0 0 0 0 0 0 0 0 0 0 0 0 0 0 0 0 0 0 0 0 0 0 0 0 0 0
0 0 0 0 0 0 0 0 0 0 0 0 0 0 0 0 0 0 0 0 0 0 0 0 0 0 0 0 0 0 0 0 0 0 0 0 0 0
Wind_Speed
4 4 3 2 2 3 3 4 4 2 3 4 3 3 3 4 6 6 5 9 12 12 12 12 12 11 11 11 10 10 10 9 9 9 8 9 9 9
3 4 3 2 2 2 2 2 3 4 3 4 4 3 3 5 6 6 6 10 12 12 13 13 13 13 13 12 12 11 11 11 11 10 10 10 9 9
4 4 4 3 2 2 2 2 2 3 3 3 2 2 3 4 3 4 5 5 6 12 13 14 14 14 14 13 13 13 12 12 12 11 11 11 10 11
5 4 4 3 3 3 2 2 2 3 3 3 2 2 3 4 4 5 5 6 5 10 13 14 14 14 14 14 14 13 13 13 13 12 12 12 12 12
6 5 5 4 4 3 3 2 2 2 2 3 3 2 2 1 2 3 4 4 5 8 11 13 15 15 15 14 14 14 14 13 13 13 13 12 12 12
6 6 5 6 5 4 3 3 2 2 1 2 2 2 2 1 1 2 3 3 4 5 6 7 10 13 14 15 14 14 14 14 14 14 13 13 13 13
5 5 6 7 7 5 4 3 3 2 2 1 2 1 2 1 2 3 4 3 3 3 3 3 4 4 6 10 12 14 14 14 14 14 14 14 14 13
5 5 5 6 6 6 6 6 5 4 3 3 2 3 4 3 2 2 2 2 3 3 2 4 3 4 4 5 9 12 12 13 13 13 13 14 14 13
5 4 4 4 5 3 4 4 4 5 6 5 5 5 4 4 3 3 3 3 4 3 2 3 2 3 4 4 8 9 10 11 12 12 13 13 13 13
5 5 5 4 4 4 3 2 2 3 4 4 4 5 4 4 4 4 4 3 3 2 2 3 2 3 3 3 6 8 9 10 10 11 11 11 12 12
4 4 5 4 5 6 4 3 2 3 3 4 4 3 3 3 2 1 1 1 2 3 1 2 2 2 2 3 4 6 7 8 8 9 9 10 11 10
2 2 4 5 5 5 4 4 4 4 2 1 2 3 3 3 2 2 3 2 2 3 2 2 2 1 3 3 2 2 3 5 6 8 8 9 9 5
2 2 2 4 4 4 4 4 5 4 1 1 1 1 1 1 2 1 1 2 3 3 2 1 1 1 2 3 3 2 2 2 3 4 5 7 7 5
2 1 1 3 2 1 2 2 2 1 0 0 0 1 1 2 2 2 2 2 3 4 3 1 2 2 2 3 3 3 3 2 2 3 3 4 5 6
1 3 3 2 2 2 1 0 1 1 1 0 1 2 2 2 2 2 2 1 2 2 2 1 2 2 2 3 3 3 3 3 2 2 3 3 3 3
1 3 5 5 4 3 3 2 1 1 1 1 1 1 1 1 1 1 1 1 2 3 3 2 2 2 3 3 3 3 3 3 3 3 3 3 3 2
3 3 3 3 3 3 3 2 2 2 1 1 1 2 2 2 2 2 1 1 1 2 4 3 3 2 2 2 2 3 3 3 3 3 3 3 4 3
7 5 4 3 3 3 3 3 3 2 2 1 1 1 1 2 2 2 1 1 1 2 3 3 3 3 2 2 2 2 3 3 3 3 2 3 4 4
7 5 5 4 4 4 3 3 3 3 3 2 2 2 2 2 2 2 2 2 2 2 2 2 2 2 3 4 4 2 2 3 3 3 3 3 5 5
6 5 5 4 4 4 4 4 4 4 4 4 4 3 3 2 2 2 2 2 2 2 3 3 2 2 2 3 4 4 4 3 3 4 4 4 4 6
5 5 5 5 4 4 4 4 4 4 4 4 4 4 3 3 3 3 3 4 3 2 3 3 4 5 2 2 3 4 4 5 5 4 4 3 4 3
5 5 5 5 5 5 4 4 4 4 5 4 4 4 3 3 3 3 3 3 3 3 3 4 4 3 2 2 4 5 6 6 6 6 5 4 3 3
5 5 4 5 4 4 4 4 4 4 4 4 3 3 3 3 3 3 3 3 3 3 3 4 3 3 2 3 3 4 6 6 4 4 5 7 7 8
Wind_Direction
200 199 203 215 202 190 175 165 162 194 248 253 242 231 211 202 207 203 209 213 213 215 217 219 220 222 224 226 228 230 232 234 237 241 245 250 252 254
200 201 213 215 209 194 183 180 170 171 217 243 232 228 208 212 206 204 213 214 217 219 222 225 226 227 227 229 231 232 234 235 237 239 242 244 245 249
211 206 220 213 205 204 191 181 179 169 204 254 244 235 201 212 203 211 217 216 224 226 227 228 230 230 231 232 233 234 236 236 237 239 240 242 243 246
212 207 217 211 204 203 194 200 202 193 187 225 247 226 218 217 208 212 221 221 223 231 230 232 234 235 235 235 236 237 238 238 239 240 241 243 244 247
204 204 211 201 211 212 200 201 209 205 187 193 233 234 235 219 204 234 233 233 231 234 230 234 236 237 238 239 239 239 240 241 242 242 243 245 248 250
206 206 206 202 204 203 204 206 199 195 186 189 224 240 242 239 175 221 249 242 242 243 239 235 236 237 240 241 242 242 242 242 242 242 243 245 247 250
214 212 212 210 205 202 201 201 191 192 194 199 233 239 247 234 228 222 232 252 260 241 242 245 235 238 241 243 244 245 245 244 243 243 244 246 248 250
214 218 220 215 209 207 207 201 190 190 200 205 223 227 238 231 229 218 218 236 270 252 208 252 226 239 242 235 241 242 243 243 243 244 245 246 248 250
208 211 223 212 194 197 215 220 224 220 205 199 214 227 226 223 210 220 217 214 233 247 195 255 250 249 252 253 246 242 241 243 244 246 249 249 250 251
208 208 209 210 198 189 196 210 240 247 224 208 213 229 230 225 209 213 216 230 256 271 189 238 261 255 263 261 254 247 246 248 249 250 252 254 255 257
216 204 194 200 212 198 185 204 242 268 256 225 216 232 245 242 207 158 212 217 268 272 220 214 261 272 277 272 273 268 261 261 259 258 261 263 263 263
209 202 199 200 209 201 192 197 230 252 255 264 260 284 284 292 263 198 205 212 242 273 257 211 256 290 299 286 288 301 292 278 273 269 267 266 266 260
196 208 209 186 191 197 191 200 227 231 218 224 264 311 333 328 314 264 221 210 227 251 257 200 238 235 237 284 298 292 290 291 293 285 275 271 266 240
194 196 173 155 163 167 170 211 232 227 101 78 329 308 306 298 296 292 270 247 240 250 273 219 236 240 249 271 282 295 293 284 279 281 284 288 279 266
131 121 110 103 95 78 81 114 106 111 125 167 270 282 280 282 299 310 321 310 309 303 309 275 252 259 242 251 267 279 299 302 298 292 291 287 277 279
86 84 82 77 79 66 56 57 78 112 144 187 271 296 326 348 351 341 328 340 345 327 330 328 291 259 258 258 255 274 279 284 305 303 292 289 286 278
116 88 75 72 70 60 51 45 48 46 41 15 2 348 348 356 343 348 354 0 345 318 323 332 330 308 263 254 271 281 290 291 293 301 303 296 289 289
96 85 76 69 68 64 57 44 43 40 23 17 22 9 351 349 342 348 360 356 325 319 319 321 336 349 349 319 255 266 288 291 299 302 297 292 294 294
82 78 76 72 65 60 54 49 37 24 25 31 27 18 13 11 6 358 356 349 337 326 318 320 335 351 336 314 297 256 261 289 300 299 288 276 279 286
69 72 69 64 60 57 51 46 39 35 38 34 27 22 17 14 10 359 348 339 331 332 334 337 337 322 292 286 288 295 284 271 281 291 293 289 280 285
67 65 64 62 59 56 52 47 44 39 31 28 22 16 9 7 1 348 341 343 340 335 332 319 305 307 296 322 317 307 299 289 276 278 290 299 303 305
71 68 63 61 59 55 52 47 44 37 27 23 14 8 4 5 357 347 343 340 334 322 308 304 317 334 351 332 312 306 306 311 308 301 283 267 271 280
72 69 64 59 55 51 49 46 44 31 21 13 5 358 355 350 344 343 339 338 333 328 324 322 329 335 324 311 308 306 307 310 314 323 315 301 289 281